Regional Weather Roundup
Issued by NWS

Home | Current Version | Previous Version | Text Only | Print | Product List | Glossary On
Versions: 1 2 3 4 5 6 7 8 9 10 11 12 13 14 15 16 17 18 19 20 21 22 23 24 25 26 27 28 29 30 31 32 33 34 35 36 37 38 39 40 41 42 43 44 45 46 47 48 49 50
000
ASUS43 KLSX 022210
RWRMO

WEATHER SUMMARY FOR MISSOURI
NATIONAL WEATHER SERVICE SPRINGFIELD MO
500 PM CDT WED SEP 02 2015

NOTE: "FAIR" INDICATES FEW OR NO CLOUDS BELOW 12,000 FEET WITH NO
       SIGNIFICANT WEATHER AND/OR OBSTRUCTIONS TO VISIBILITY.
       CURRENT SKY AND/OR WEATHER CONDITIONS ARE NOT AVAILABLE FOR
       CHILLICOTHE AND FARMINGTON.

MOZ001>031-035>038-043-044-053-054-022300-
...NORTHERN AND WESTERN MISSOURI...

CITY           SKY/WX    TMP DP  RH WIND       PRES   REMARKS
KANSAS CTY INT SUNNY     88  68  51 S18       29.92F HX  91
KANSAS C DTWN  SUNNY     90  67  46 S17G23    29.92F HX  93
LEE`S SUMMIT   SUNNY     88  67  49 S13       29.94F HX  91
ST JOSEPH      SUNNY     87  71  58 S15       29.90F HX  93
CHILLICOTHE      N/A     90  69  50 SW8G20    29.93F HX  94
KIRKSVILLE     SUNNY     87  66  49 SW9G18    29.97S

$$
MOZ066>068-077>081-088>096-101>105-022300-
...SOUTHWEST MISSOURI...

CITY           SKY/WX    TMP DP  RH WIND       PRES   REMARKS
SPRINGFIELD    SUNNY     87  65  47 SW12      30.00F
JOPLIN         MOSUNNY   87  68  52 S15       29.99F HX  90

$$
MOZ032>034-039>042-045>050-055>058-069>072-022300-
...CENTRAL MISSOURI...

CITY           SKY/WX    TMP DP  RH WIND       PRES   REMARKS
COLUMBIA       MOSUNNY   87  69  54 S8        29.98S HX  91
JEFFERSON CITY PTSUNNY   88  66  48 S9        29.95F HX  90
ROLLA          CLOUDY    85  67  54 S8        29.99F
SEDALIA        MOSUNNY   91  68  46 S14       29.97F HX  95
WARRENSBURG    SUNNY     88  64  45 S13G18    29.94F
OSAGE BEACH    MOSUNNY   90  64  43 S8        29.98F HX  91

$$
MOZ051-052-059>065-022300-
...EAST CENTRAL MISSOURI...

CITY           SKY/WX    TMP DP  RH WIND       PRES   REMARKS
ST LOUIS INTL  PTSUNNY   91  63  39 SW9       29.99F HX  92
SPIRIT OF STL  PTSUNNY   86  70  58 S3        29.97F HX  90
ST CHARLES     PTSUNNY   87  69  54 SW7       29.96F HX  91

$$
MOZ072>076-082>087-097>100-106>115-022300-
...SOUTH CENTRAL AND SOUTHEAST MISSOURI...

CITY           SKY/WX    TMP DP  RH WIND       PRES   REMARKS
CAPE GIRARDEAU MOSUNNY   87  72  60 E7        29.99F HX  93
FARMINGTON     SUNNY     88  68  51 S8        30.03F HX  91
POPLAR BLUFF   SUNNY     89  69  51 S5        29.98F HX  93
WEST PLAINS    SUNNY     87  64  46 SW8       30.04F

$$



USA.gov is the U.S. government's official web portal to all federal, state and local government web resources and services.